www.pogodaiklimat.ru

Погода и климат >> Архив погоды >> Австралия >> Западная Австралия >> Остров Адель


ПОГОДА на Острове Адель

  • Прогноз погоды на Острове Адель
  • Монитор погоды на Острове Адель

АРХИВ ПОГОДЫ на Острове Адель

Время (UTC), дата Ветер
(напр.,м/с)
 
Видим.   Явления Облачность Т
(С)
Тd
(С)
f
(%)
Тe
(С)
Тes
(С)
Комфортность P
(гПа)
Po
(гПа)
Тmin
(С)
Tmax
(С)
R
(мм)
R24
(мм)
S
(см)
00 16.04 ЮВ 3 н/о н/о +29.4 +24 +24 комфорт 1013.6 1013.0
03 16.04 Ю 1 н/о н/о +30.2 +25 +25 комфорт 1013.1 1012.5
06 16.04 ЮЗ 4 н/о н/о +30.1 +25 +25 комфорт 1011.2 1010.6
09 16.04 ЮЗ 5 н/о н/о +29.6 +25 +25 комфорт 1011.2 1010.6
12 16.04 ЮЗ 6 н/о н/о +29.4 +24 +24 комфорт 1012.7 1012.1
15 16.04 ЮЗ 7 н/о н/о +29.1 +24 +24 комфорт 1012.3 1011.7
18 16.04 ЮЗ 5 н/о н/о +28.7 +24 +24 комфорт 1011.1 1010.5
21 16.04 З 4 н/о н/о +28.3 +23 +23 комфорт 1011.9 1011.3
00 17.04 СЗ 3 н/о н/о +29.4 +24 +24 комфорт 1013.8 1013.2
03 17.04 ЮЗ 4 н/о н/о +30.3 +25 +25 комфорт 1013.4 1012.8
06 17.04 ЮЗ 1 н/о н/о +30.1 +25 +25 комфорт 1011.2 1010.6
09 17.04 З 5 н/о н/о +29.5 +24 +24 комфорт 1011.0 1010.4
12 17.04 З 5 н/о н/о +28.9 +24 +24 комфорт 1012.9 1012.3
15 17.04 З 5 н/о н/о +28.8 +24 +24 комфорт 1012.3 1011.7
18 17.04 З 3 н/о н/о +28.5 +24 +24 комфорт 1011.2 1010.6
21 17.04 СЗ 3 н/о н/о +28.5 +24 +24 комфорт 1011.8 1011.2
00 18.04 штиль 0 н/о н/о +29.2 +24 +24 комфорт 1013.4 1012.8
03 18.04 З 1 н/о н/о +29.5 +24 +24 комфорт 1013.3 1012.7
06 18.04 З 4 н/о н/о +30.1 +25 +25 комфорт 1010.6 1010.0
09 18.04 ЮЗ 3 н/о н/о +29.6 +25 +25 комфорт 1011.1 1010.5
12 18.04 З 4 н/о н/о +28.7 +24 +24 комфорт 1012.1 1011.5
15 18.04 З 4 н/о н/о +28.8 +24 +24 комфорт 1012.0 1011.4
18 18.04 СЗ 3 н/о н/о +28.7 +24 +24 комфорт 1011.5 1010.9
21 18.04 СЗ 3 н/о н/о +28.3 +23 +23 комфорт 1011.7 1011.1
00 19.04 СЗ 2 н/о н/о +29.3 +24 +24 комфорт 1013.3 1012.7
03 19.04 СЗ 3 н/о н/о +29.7 +25 +25 комфорт 1012.6 1012.0
06 19.04 СЗ 3 н/о н/о +30.0 +25 +25 комфорт 1009.6 1009.0
09 19.04 З 3 н/о н/о +29.6 +25 +25 комфорт 1009.5 1008.9
12 19.04 СЗ 3 н/о н/о +28.6 +24 +24 комфорт 1011.1 1010.5
15 19.04 З 5 н/о н/о +29.0 +24 +24 комфорт 1011.7 1011.1
18 19.04 З 5 н/о н/о +28.5 +24 +24 комфорт 1010.9 1010.3
21 19.04 З 4 н/о н/о +28.2 +23 +23 комфорт 1011.2 1010.6
00 20.04 СЗ 4 н/о н/о +29.4 +24 +24 комфорт 1012.9 1012.3
03 20.04 ЮЗ 1 н/о н/о +30.1 +25 +25 комфорт 1012.4 1011.8
06 20.04 ЮЗ 1 н/о н/о +30.5 +25 +25 комфорт 1010.2 1009.6
09 20.04 ЮЗ 2 н/о н/о +29.5 +24 +24 комфорт 1009.7 1009.1
12 20.04 ЮЗ 4 н/о н/о +28.5 +24 +24 комфорт 1011.0 1010.4
15 20.04 З 3 н/о н/о +28.8 +24 +24 комфорт 1011.1 1010.5
18 20.04 З 4 н/о н/о +28.4 +23 +23 комфорт 1010.1 1009.5
21 20.04 ЮЗ 5 н/о н/о +28.3 +23 +23 комфорт 1010.6 1010.0
00 21.04 Ю 4 н/о н/о +30.1 +25 +25 комфорт 1012.3 1011.7
03 21.04 ЮВ 2 н/о н/о +30.3 +25 +25 комфорт 1011.5 1010.9
06 21.04 С 2 н/о н/о +30.3 +25 +25 комфорт 1009.3 1008.7
09 21.04 Ю 3 н/о н/о +29.3 +24 +24 комфорт 1009.3 1008.7
12 21.04 ЮЗ 4 н/о н/о +28.7 +24 +24 комфорт 1010.8 1010.2
15 21.04 З 4 н/о н/о +28.9 +24 +24 комфорт 1010.6 1010.0
18 21.04 З 4 н/о н/о +28.9 +24 +24 комфорт 1009.5 1008.9
21 21.04 СЗ 4 н/о н/о +28.7 +24 +24 комфорт 1009.8 1009.2
00 22.04 СЗ 3 н/о н/о +29.7 +25 +25 комфорт 1011.1 1010.5
03 22.04 С 4 н/о н/о +30.7 +26 +26 жарко 1010.8 1010.2
06 22.04 С 3 н/о н/о +30.2 +25 +25 комфорт 1009.3 1008.7
09 22.04 ЮЗ 3 н/о н/о +29.7 +25 +25 комфорт 1010.0 1009.4
12 22.04 СЗ 3 н/о н/о +29.0 +24 +24 комфорт 1011.5 1010.9
15 22.04 С 2 н/о н/о +28.7 +24 +24 комфорт 1011.9 1011.3
18 22.04 СЗ 1 н/о н/о +28.8 +24 +24 комфорт 1011.0 1010.4
21 22.04 штиль 0 н/о н/о +28.2 +23 +23 комфорт 1011.4 1010.8

 

Местоположение метеостанции Остров Адель (Западная Австралия, Австралия): широта -15.51 долгота 123.15 высота над уровнем моря 5 м.

В архиве по умолчанию представлена погода на Острове Адель за последнюю неделю. Архивные данные за месяц целиком и за предыдущие месяцы, начиная с января 2011 года, Вы можете получить, выбрав интересующий диапазон дат из раскрывающегося списка и нажав кнопку "Ввод!".


*Определитесь, кто Вы:
робот инопланетянин человек

Внимание! Время в таблицах - всемирное. Для получения местного времени необходимо прибавить поправку, которая равна 8 ч.

Смотрите также архив погоды в соседних городах и на ближайших метеорологических станциях:

Погода на Острове Брауз (Западная Австралия, Австралия) (162 км)
Погода в Дерби (Северная территория, Австралия) (213 км)
Погода на Базе ВВС Curtin (Западная Австралия, Австралия) (241 км)
Погода в Робак Запад (Западная Австралия, Австралия) (280 км)
Погода в Бруме (Западная Австралия, Австралия) (289 км)
Погода на Острове Троутон (Западная Австралия, Австралия) (378 км)
Погода в Трускотте (Западная Австралия, Австралия) (382 км)
Погода в Фицрой-Кроссинге (Западная Австралия, Австралия) (392 км)
Погода в Калумбуру (Западная Австралия, Австралия) (400 км)
Погода в Роули Шоалс (Западная Австралия, Австралия) (501 км)

Пояснения к столбцам:

Ветер - указаны скорость ветра в м/с - средняя за 10 мин, порывы в срок и между сроками (в фигурных скобках) и направление, откуда дует ветер: С - северный, СВ - северо-восточный, В - восточный, ЮВ - юго-восточный, Ю - южный, ЮЗ - юго-западный, З - западный, СЗ - северо-западный.
Видимость - горизонтальная дальность видимости в метрах или километрах. При видимости от 1 до 10 км при отсутствии осадков обычно наблюдается дымка, при ухудшении видимости до 1 км и менее - туман. В сухую погоду видимость может ухудшаться дымом, пылью или мглою.
Явления - указаны атмосферные явления, наблюдавшиеся в срок или в последний час перед сроком; фигурными скобками обозначены явления, наблюдавшиеся между сроками (за 1-3 часа до срока); квадратными скобками обозначены град или гололедные отложения с указанием их диаметра в мм.
Облачность - указаны через наклонную черту общая и нижняя облачность в баллах и высота нижней границы облаков в метрах; квадратными скобками обозначены формы облаков: Ci - перистые, Cs - перисто-слоистые, Cc - перисто-кучевые, Ac - высококучевые, As - высокослоистые, Sc - слоисто-кучевые, Ns - слоисто-дождевые, Cu - кучевые, Cb - кучево-дождевые. Подробнее классификацию облаков см. в Атласе облаков (PDF).
T - Температура воздуха - температура, измеренная на высоте 2 м над землей.
Td - Температура точки росы - температура, при понижении до которой содержащийся в воздухе водяной пар достигнет насыщения.
f - Относительная влажность воздуха - влажноcть воздуха, измеренная на высоте 2 м над землей.
Te - Эффективная температура - температура, которую ощущает одетый по сезону человек в тени. Характеристика душности погоды. При расчете учитывается влияние влажности воздуха и скорости ветра на теплоощущения человека.
Tes - Эффективная температура на солнце - температура, которую ощущает человек, с поправкой на солнечный нагрев. Характеристика знойности погоды. Зависит от высоты солнца над горизонтом, облачности и скорости ветра. Ночью, в пасмурную погоду, а также при ветре 12 м/с и более поправка равна нулю.
P - Атмосферное давление - приведенное к уровню моря атмосферное давление.
Po - Атмосферное давление - измеренное на уровне метеостанции атмосферное давление.
Tmin - Минимальная температура - минимум температуры воздуха на высоте 2 м над землей.
Tmax - Максимальная температура - максимум температуры воздуха на высоте 2 м над землей.
R - Количество осадков - Количество выпавших осадков за период времени, мм. При наведении курсора мыши на число - период времени, за который выпало указанное количество осадков.
R24 - Количество осадков - Количество выпавших осадков за 24 часа, мм.
S - Снежный покров - Высота снежного покрова, см. При наведении курсора мыши на число - состояние снежного покрова и степень покрытия местности в баллах.